GEFSGL_prec_meanprecacc_300.txt.gz
Total_Precipitation_Accumulation
1.55 1.43 1.27 1.05 0.92 0.91 0.94 0.93 0.89 0.91 0.87 0.88 0.87 0.93 1.07 1.08 1.10 1.28 1.38 1.40 1.53 1.63 1.60 1.63 1.79 1.91 2.02 2.03 2.03 2.03 2.07 2.04 1.90 1.65 1.30 1.15 1.29 1.31 1.36 1.16 1.13 1.17 1.11
1.29 1.12 0.94 0.80 0.73 0.74 0.76 0.73 0.66 0.68 0.64 0.69 0.76 0.76 0.95 1.11 1.14 1.19 1.20 1.20 1.34 1.44 1.46 1.53 1.56 1.57 1.68 1.80 1.92 1.89 1.95 1.99 1.96 1.84 1.55 1.32 1.32 1.42 1.59 1.54 1.39 1.28 1.26
1.20 1.06 0.92 0.81 0.77 0.75 0.69 0.65 0.55 0.51 0.57 0.63 0.74 0.74 0.78 0.93 1.04 1.06 1.06 1.08 1.14 1.19 1.23 1.30 1.33 1.41 1.55 1.56 1.63 1.70 1.77 1.82 1.94 1.89 1.80 1.67 1.51 1.45 1.54 1.52 1.55 1.66 1.58
1.33 1.18 1.05 0.94 0.83 0.77 0.64 0.59 0.51 0.54 0.60 0.62 0.60 0.64 0.69 0.79 0.91 0.94 0.96 0.96 0.97 0.98 1.09 1.16 1.22 1.27 1.37 1.43 1.45 1.59 1.71 1.79 1.82 1.79 1.74 1.66 1.61 1.56 1.57 1.57 1.64 1.77 1.84
1.04 0.85 0.78 0.75 0.72 0.62 0.56 0.53 0.48 0.45 0.44 0.48 0.46 0.48 0.53 0.62 0.69 0.71 0.78 0.86 0.91 0.93 1.03 1.05 1.08 1.08 1.12 1.18 1.18 1.37 1.52 1.69 1.76 1.79 1.69 1.58 1.52 1.53 1.52 1.55 1.63 1.84 1.89
0.70 0.63 0.60 0.55 0.49 0.47 0.48 0.44 0.39 0.35 0.31 0.36 0.39 0.43 0.45 0.47 0.59 0.61 0.62 0.71 0.81 0.86 0.93 0.96 1.04 1.08 1.04 0.99 0.96 1.03 1.16 1.28 1.47 1.60 1.64 1.56 1.48 1.45 1.57 1.69 1.68 1.81 1.93
0.44 0.39 0.40 0.42 0.39 0.36 0.37 0.38 0.37 0.36 0.34 0.36 0.38 0.44 0.40 0.39 0.47 0.45 0.57 0.73 0.75 0.75 0.76 0.89 1.00 1.04 1.08 1.07 0.97 0.97 0.96 0.98 1.09 1.27 1.40 1.42 1.41 1.44 1.55 1.66 1.74 1.80 1.70
0.35 0.32 0.32 0.34 0.35 0.35 0.37 0.38 0.37 0.36 0.35 0.40 0.41 0.45 0.40 0.33 0.39 0.42 0.51 0.61 0.66 0.64 0.67 0.79 0.94 1.05 1.11 1.12 1.07 1.12 1.06 0.94 0.92 0.98 1.16 1.26 1.30 1.47 1.66 1.84 1.95 1.95 1.83
0.30 0.31 0.32 0.34 0.36 0.36 0.34 0.33 0.32 0.32 0.32 0.38 0.45 0.45 0.38 0.32 0.36 0.43 0.53 0.62 0.69 0.68 0.68 0.74 0.90 0.98 1.13 1.17 1.10 1.18 1.17 0.96 0.89 0.97 1.01 1.10 1.25 1.41 1.63 1.85 1.93 1.94 1.91
0.29 0.31 0.35 0.36 0.35 0.34 0.37 0.39 0.34 0.31 0.33 0.36 0.39 0.38 0.34 0.35 0.39 0.41 0.49 0.52 0.62 0.70 0.73 0.75 0.97 1.03 1.12 1.08 1.03 1.22 1.31 1.14 0.88 0.87 0.95 1.09 1.20 1.36 1.61 1.78 2.02 2.03 1.84
0.33 0.36 0.34 0.33 0.33 0.38 0.40 0.43 0.43 0.38 0.35 0.35 0.33 0.32 0.31 0.33 0.39 0.39 0.45 0.40 0.43 0.50 0.59 0.64 0.66 0.82 0.89 0.93 1.00 1.06 1.21 1.11 0.96 1.05 1.15 1.16 1.25 1.32 1.45 1.60 1.84 2.02 1.96
0.31 0.31 0.30 0.29 0.30 0.35 0.41 0.37 0.35 0.38 0.38 0.36 0.32 0.29 0.30 0.30 0.31 0.34 0.39 0.39 0.43 0.46 0.47 0.53 0.59 0.73 0.78 0.83 0.86 0.90 0.99 1.02 1.04 1.18 1.20 1.09 1.14 1.23 1.31 1.45 1.58 1.71 1.62
0.30 0.30 0.33 0.35 0.36 0.37 0.42 0.40 0.35 0.36 0.39 0.41 0.43 0.40 0.36 0.33 0.31 0.35 0.38 0.39 0.43 0.43 0.47 0.56 0.59 0.68 0.64 0.66 0.76 0.80 0.87 1.06 1.18 1.14 1.11 1.05 1.03 1.10 1.16 1.33 1.48 1.60 1.57
0.38 0.37 0.40 0.42 0.45 0.45 0.42 0.43 0.40 0.38 0.42 0.44 0.45 0.46 0.43 0.41 0.35 0.34 0.35 0.37 0.43 0.45 0.50 0.57 0.61 0.64 0.62 0.63 0.70 0.79 0.89 1.06 1.23 1.10 0.97 0.97 0.99 1.09 1.19 1.22 1.29 1.35 1.49
0.36 0.39 0.44 0.47 0.52 0.55 0.52 0.49 0.49 0.48 0.50 0.51 0.48 0.51 0.49 0.44 0.44 0.48 0.45 0.44 0.49 0.50 0.54 0.61 0.71 0.79 0.76 0.77 0.83 0.87 0.91 0.93 1.01 0.96 0.97 1.03 1.10 1.11 1.17 1.24 1.26 1.23 1.23
0.35 0.40 0.42 0.47 0.50 0.53 0.58 0.58 0.61 0.60 0.62 0.59 0.57 0.53 0.48 0.50 0.53 0.56 0.58 0.57 0.59 0.62 0.69 0.68 0.79 0.94 0.98 0.98 1.00 1.02 1.04 1.00 1.01 1.00 1.04 1.08 1.09 1.08 1.10 1.20 1.31 1.33 1.23
0.35 0.39 0.43 0.45 0.47 0.50 0.53 0.59 0.62 0.60 0.58 0.56 0.56 0.56 0.50 0.49 0.50 0.50 0.54 0.60 0.64 0.71 0.69 0.72 0.92 0.99 0.98 0.98 1.03 1.07 1.00 0.89 0.92 0.96 0.94 0.95 0.96 0.97 0.99 1.04 1.13 1.19 1.19
0.39 0.43 0.47 0.48 0.48 0.52 0.53 0.53 0.57 0.59 0.57 0.51 0.48 0.50 0.51 0.51 0.49 0.49 0.55 0.59 0.64 0.70 0.73 0.91 1.10 1.16 1.10 1.04 1.01 0.98 0.89 0.83 0.81 0.82 0.86 0.89 0.93 0.96 0.96 0.96 0.97 1.01 1.04
0.41 0.41 0.44 0.47 0.48 0.51 0.52 0.53 0.52 0.53 0.52 0.50 0.49 0.50 0.54 0.54 0.55 0.56 0.57 0.57 0.62 0.68 0.78 0.91 1.05 1.16 1.12 1.00 0.93 0.90 0.86 0.83 0.80 0.81 0.85 0.90 0.92 0.95 0.93 0.92 0.92 0.99 1.01
0.40 0.48 0.49 0.48 0.46 0.47 0.49 0.51 0.51 0.53 0.56 0.56 0.56 0.61 0.63 0.59 0.57 0.62 0.65 0.66 0.70 0.73 0.75 0.78 0.82 0.83 0.80 0.79 0.84 0.84 0.83 0.86 0.86 0.85 0.87 0.89 0.94 1.01 1.01 0.96 0.94 0.95 0.96
0.41 0.51 0.53 0.46 0.41 0.44 0.50 0.53 0.51 0.52 0.54 0.57 0.57 0.64 0.69 0.64 0.64 0.67 0.67 0.67 0.73 0.78 0.77 0.74 0.75 0.76 0.76 0.75 0.78 0.81 0.82 0.84 0.87 0.89 0.93 0.96 0.97 0.99 1.03 1.03 0.98 0.97 0.98
0.42 0.47 0.50 0.48 0.47 0.50 0.54 0.55 0.57 0.53 0.51 0.52 0.52 0.57 0.65 0.63 0.67 0.67 0.67 0.69 0.72 0.75 0.76 0.74 0.70 0.74 0.78 0.78 0.81 0.84 0.85 0.85 0.87 0.94 1.00 1.04 1.05 1.02 1.01 1.03 1.02 1.01 1.01
0.42 0.44 0.48 0.51 0.53 0.59 0.59 0.57 0.55 0.53 0.53 0.52 0.55 0.56 0.58 0.59 0.62 0.64 0.66 0.69 0.71 0.73 0.75 0.76 0.73 0.72 0.74 0.73 0.75 0.81 0.82 0.81 0.85 0.93 1.04 1.09 1.12 1.11 1.09 1.05 1.03 1.05 1.06
0.44 0.48 0.51 0.53 0.54 0.56 0.56 0.59 0.60 0.58 0.58 0.57 0.56 0.58 0.60 0.59 0.60 0.64 0.63 0.63 0.65 0.67 0.67 0.70 0.70 0.69 0.72 0.75 0.75 0.76 0.76 0.77 0.80 0.87 0.97 1.09 1.12 1.14 1.18 1.20 1.16 1.13 1.14
0.50 0.52 0.53 0.55 0.55 0.57 0.59 0.59 0.63 0.64 0.62 0.63 0.63 0.62 0.63 0.62 0.62 0.64 0.62 0.61 0.62 0.63 0.66 0.67 0.67 0.66 0.68 0.70 0.73 0.77 0.90 0.92 0.85 0.83 0.87 1.01 1.09 1.12 1.12 1.17 1.23 1.24 1.24
0.56 0.57 0.56 0.56 0.60 0.61 0.64 0.64 0.63 0.65 0.66 0.65 0.64 0.64 0.65 0.68 0.71 0.74 0.74 0.74 0.73 0.70 0.70 0.72 0.73 0.74 0.74 0.72 0.73 0.82 0.90 0.87 0.85 0.89 0.90 0.93 1.01 1.09 1.13 1.17 1.20 1.26 1.32

GEFSGL_prec_meanprecacc_306.txt.gz
Total_Precipitation_Accumulation
1.59 1.48 1.31 1.07 0.93 0.92 0.94 0.93 0.89 0.92 0.87 0.88 0.88 0.94 1.07 1.09 1.11 1.30 1.40 1.41 1.54 1.64 1.61 1.64 1.80 1.92 2.03 2.04 2.05 2.05 2.09 2.05 1.92 1.67 1.32 1.17 1.31 1.33 1.38 1.18 1.15 1.19 1.12
1.32 1.17 0.98 0.83 0.75 0.75 0.77 0.73 0.66 0.68 0.64 0.70 0.77 0.77 0.95 1.12 1.15 1.20 1.21 1.21 1.35 1.44 1.46 1.53 1.57 1.59 1.69 1.81 1.93 1.90 1.96 2.00 1.97 1.86 1.56 1.33 1.34 1.43 1.61 1.56 1.41 1.29 1.27
1.22 1.09 0.95 0.84 0.80 0.77 0.70 0.66 0.55 0.52 0.57 0.64 0.74 0.75 0.79 0.94 1.05 1.07 1.07 1.09 1.14 1.20 1.24 1.31 1.34 1.43 1.56 1.58 1.65 1.72 1.79 1.84 1.95 1.90 1.81 1.68 1.52 1.46 1.56 1.55 1.57 1.67 1.59
1.36 1.20 1.07 0.96 0.85 0.79 0.67 0.61 0.52 0.55 0.61 0.62 0.60 0.65 0.70 0.80 0.92 0.95 0.96 0.97 0.98 0.99 1.10 1.17 1.22 1.28 1.38 1.44 1.46 1.60 1.72 1.80 1.84 1.81 1.75 1.68 1.62 1.58 1.59 1.60 1.67 1.80 1.86
1.06 0.87 0.79 0.76 0.73 0.64 0.58 0.55 0.49 0.46 0.44 0.48 0.47 0.49 0.53 0.62 0.69 0.72 0.79 0.87 0.92 0.94 1.04 1.06 1.09 1.09 1.13 1.19 1.18 1.37 1.53 1.70 1.78 1.81 1.71 1.60 1.54 1.55 1.55 1.57 1.65 1.87 1.92
0.71 0.64 0.61 0.56 0.51 0.49 0.49 0.45 0.40 0.36 0.32 0.36 0.39 0.43 0.45 0.47 0.59 0.61 0.63 0.72 0.82 0.87 0.94 0.97 1.05 1.08 1.04 0.99 0.97 1.04 1.17 1.30 1.49 1.63 1.66 1.58 1.50 1.47 1.59 1.71 1.71 1.85 1.96
0.45 0.41 0.41 0.43 0.40 0.37 0.38 0.39 0.38 0.37 0.35 0.36 0.39 0.44 0.41 0.39 0.47 0.45 0.57 0.74 0.76 0.76 0.76 0.90 1.01 1.05 1.09 1.08 0.98 0.97 0.96 0.99 1.10 1.29 1.42 1.44 1.43 1.46 1.57 1.69 1.76 1.83 1.73
0.37 0.34 0.33 0.35 0.36 0.36 0.38 0.38 0.38 0.37 0.36 0.41 0.42 0.45 0.40 0.33 0.39 0.42 0.51 0.62 0.66 0.64 0.68 0.80 0.95 1.06 1.11 1.13 1.08 1.13 1.07 0.94 0.92 0.99 1.17 1.28 1.31 1.49 1.68 1.85 1.97 1.97 1.85
0.31 0.33 0.34 0.35 0.37 0.37 0.35 0.34 0.33 0.34 0.33 0.39 0.46 0.46 0.38 0.32 0.36 0.43 0.53 0.63 0.70 0.69 0.69 0.74 0.91 0.99 1.15 1.20 1.13 1.20 1.18 0.96 0.89 0.97 1.03 1.12 1.26 1.43 1.65 1.88 1.96 1.97 1.95
0.30 0.32 0.37 0.39 0.37 0.35 0.38 0.40 0.35 0.33 0.34 0.37 0.41 0.39 0.35 0.35 0.40 0.42 0.50 0.53 0.63 0.70 0.73 0.75 0.98 1.04 1.14 1.11 1.05 1.24 1.33 1.15 0.89 0.88 0.97 1.11 1.22 1.38 1.64 1.81 2.05 2.06 1.88
0.34 0.36 0.35 0.34 0.35 0.39 0.41 0.43 0.43 0.39 0.36 0.36 0.35 0.34 0.32 0.33 0.39 0.40 0.47 0.41 0.44 0.51 0.59 0.64 0.66 0.83 0.90 0.95 1.01 1.08 1.23 1.13 0.98 1.08 1.18 1.20 1.29 1.36 1.49 1.62 1.86 2.04 1.98
0.31 0.32 0.32 0.31 0.32 0.37 0.42 0.38 0.36 0.38 0.39 0.37 0.34 0.30 0.31 0.30 0.32 0.35 0.40 0.40 0.44 0.46 0.48 0.53 0.60 0.74 0.79 0.84 0.87 0.92 1.01 1.04 1.06 1.21 1.24 1.15 1.19 1.27 1.34 1.47 1.59 1.72 1.63
0.31 0.32 0.35 0.38 0.39 0.39 0.44 0.41 0.36 0.36 0.40 0.42 0.44 0.42 0.38 0.34 0.31 0.36 0.39 0.40 0.44 0.44 0.47 0.56 0.60 0.69 0.65 0.67 0.77 0.81 0.88 1.07 1.21 1.17 1.15 1.08 1.06 1.12 1.18 1.34 1.49 1.61 1.58
0.40 0.40 0.42 0.45 0.48 0.49 0.46 0.45 0.42 0.39 0.43 0.46 0.46 0.48 0.45 0.43 0.37 0.36 0.36 0.38 0.44 0.46 0.50 0.58 0.62 0.65 0.63 0.63 0.71 0.80 0.90 1.07 1.25 1.11 0.99 0.99 1.00 1.10 1.20 1.24 1.31 1.36 1.50
0.38 0.41 0.47 0.50 0.55 0.59 0.56 0.52 0.52 0.50 0.53 0.53 0.51 0.53 0.50 0.46 0.46 0.51 0.47 0.45 0.50 0.51 0.55 0.62 0.72 0.80 0.77 0.78 0.84 0.88 0.92 0.94 1.02 0.98 0.98 1.05 1.11 1.12 1.18 1.26 1.27 1.24 1.24
0.37 0.41 0.44 0.49 0.52 0.56 0.61 0.61 0.64 0.62 0.63 0.61 0.59 0.56 0.50 0.52 0.55 0.57 0.60 0.58 0.60 0.64 0.70 0.70 0.80 0.95 0.98 0.99 1.02 1.03 1.05 1.01 1.03 1.02 1.06 1.10 1.11 1.09 1.11 1.21 1.32 1.35 1.25
0.36 0.41 0.44 0.46 0.49 0.53 0.56 0.61 0.64 0.61 0.59 0.57 0.57 0.57 0.52 0.50 0.51 0.52 0.56 0.61 0.66 0.72 0.70 0.74 0.93 1.00 0.98 0.99 1.05 1.08 1.01 0.91 0.94 0.98 0.96 0.97 0.99 0.99 1.01 1.06 1.15 1.20 1.21
0.40 0.44 0.48 0.49 0.50 0.54 0.54 0.54 0.58 0.60 0.57 0.51 0.49 0.51 0.52 0.52 0.50 0.50 0.56 0.61 0.66 0.71 0.74 0.92 1.11 1.17 1.12 1.06 1.03 0.99 0.91 0.84 0.83 0.85 0.90 0.92 0.97 1.00 1.00 0.99 1.00 1.03 1.07
0.42 0.42 0.45 0.49 0.50 0.53 0.53 0.54 0.53 0.54 0.54 0.52 0.51 0.52 0.56 0.56 0.56 0.57 0.58 0.58 0.64 0.71 0.80 0.93 1.07 1.17 1.13 1.01 0.94 0.91 0.87 0.84 0.82 0.83 0.88 0.94 0.96 0.98 0.96 0.95 0.95 1.01 1.04
0.42 0.49 0.51 0.50 0.49 0.50 0.52 0.54 0.53 0.56 0.58 0.59 0.59 0.63 0.65 0.61 0.58 0.63 0.66 0.67 0.72 0.76 0.77 0.80 0.83 0.84 0.81 0.80 0.85 0.85 0.85 0.88 0.87 0.86 0.90 0.92 0.97 1.04 1.03 0.98 0.97 0.98 0.99
0.44 0.53 0.57 0.50 0.44 0.47 0.53 0.56 0.54 0.54 0.56 0.59 0.59 0.66 0.71 0.65 0.65 0.68 0.68 0.68 0.74 0.79 0.79 0.76 0.77 0.78 0.77 0.76 0.80 0.82 0.84 0.85 0.87 0.90 0.95 0.98 0.99 1.01 1.06 1.06 1.02 1.01 1.02
0.44 0.49 0.53 0.52 0.51 0.54 0.57 0.58 0.59 0.55 0.53 0.53 0.53 0.59 0.66 0.64 0.67 0.68 0.67 0.70 0.73 0.76 0.77 0.76 0.72 0.75 0.80 0.79 0.82 0.85 0.87 0.87 0.88 0.96 1.03 1.06 1.07 1.04 1.04 1.05 1.05 1.04 1.03
0.44 0.47 0.50 0.54 0.57 0.63 0.62 0.59 0.57 0.55 0.54 0.54 0.56 0.57 0.58 0.59 0.63 0.65 0.67 0.70 0.72 0.74 0.76 0.77 0.74 0.73 0.75 0.74 0.76 0.82 0.83 0.82 0.86 0.95 1.06 1.12 1.15 1.14 1.11 1.08 1.04 1.07 1.08
0.46 0.50 0.53 0.56 0.57 0.58 0.58 0.61 0.62 0.60 0.60 0.58 0.57 0.59 0.61 0.59 0.61 0.64 0.63 0.63 0.65 0.67 0.68 0.70 0.71 0.70 0.73 0.75 0.76 0.76 0.77 0.78 0.82 0.88 0.99 1.11 1.15 1.16 1.21 1.23 1.18 1.16 1.16
0.53 0.55 0.55 0.58 0.58 0.60 0.62 0.62 0.65 0.66 0.65 0.65 0.65 0.63 0.64 0.63 0.63 0.65 0.63 0.62 0.62 0.63 0.66 0.68 0.68 0.66 0.68 0.70 0.73 0.77 0.91 0.92 0.85 0.84 0.89 1.02 1.12 1.14 1.15 1.20 1.25 1.26 1.26
0.61 0.62 0.60 0.60 0.64 0.66 0.68 0.68 0.66 0.67 0.68 0.68 0.67 0.67 0.67 0.69 0.71 0.75 0.74 0.74 0.73 0.70 0.70 0.72 0.73 0.74 0.74 0.73 0.73 0.83 0.91 0.87 0.85 0.90 0.91 0.94 1.03 1.11 1.15 1.19 1.22 1.28 1.34

GEFSGL_prec_meanprecacc_312.txt.gz
Total_Precipitation_Accumulation
1.66 1.58 1.46 1.18 0.99 0.96 0.97 0.95 0.91 0.95 0.90 0.89 0.89 0.95 1.08 1.10 1.12 1.32 1.41 1.43 1.56 1.65 1.62 1.65 1.81 1.93 2.04 2.04 2.06 2.06 2.11 2.07 1.93 1.67 1.33 1.18 1.32 1.34 1.39 1.19 1.16 1.21 1.13
1.37 1.23 1.07 0.97 0.84 0.81 0.81 0.76 0.69 0.70 0.67 0.72 0.78 0.78 0.96 1.12 1.16 1.21 1.22 1.22 1.36 1.46 1.48 1.54 1.58 1.59 1.70 1.82 1.94 1.92 1.99 2.02 1.98 1.87 1.57 1.35 1.35 1.45 1.62 1.57 1.42 1.30 1.28
1.25 1.14 1.01 0.90 0.89 0.85 0.75 0.69 0.58 0.54 0.59 0.65 0.75 0.75 0.80 0.94 1.06 1.09 1.09 1.10 1.15 1.21 1.25 1.32 1.35 1.44 1.58 1.59 1.66 1.74 1.81 1.86 1.97 1.92 1.81 1.69 1.54 1.48 1.57 1.56 1.59 1.69 1.61
1.38 1.23 1.12 1.00 0.89 0.85 0.72 0.64 0.54 0.57 0.63 0.64 0.62 0.66 0.71 0.81 0.93 0.97 0.97 0.97 0.99 1.00 1.11 1.18 1.23 1.29 1.39 1.45 1.47 1.61 1.74 1.82 1.85 1.82 1.76 1.69 1.64 1.60 1.61 1.62 1.69 1.82 1.88
1.10 0.91 0.82 0.79 0.76 0.67 0.63 0.59 0.52 0.49 0.46 0.49 0.47 0.49 0.54 0.64 0.71 0.73 0.80 0.87 0.93 0.95 1.04 1.06 1.09 1.09 1.14 1.20 1.20 1.38 1.54 1.71 1.79 1.81 1.72 1.61 1.55 1.56 1.56 1.59 1.67 1.89 1.94
0.75 0.67 0.65 0.59 0.53 0.52 0.52 0.49 0.44 0.39 0.34 0.37 0.39 0.44 0.46 0.49 0.61 0.63 0.64 0.73 0.82 0.88 0.94 0.97 1.05 1.09 1.05 1.01 0.99 1.06 1.19 1.31 1.51 1.63 1.66 1.59 1.51 1.49 1.60 1.73 1.73 1.87 1.98
0.48 0.43 0.44 0.46 0.44 0.41 0.42 0.42 0.42 0.40 0.37 0.38 0.40 0.46 0.42 0.40 0.48 0.46 0.58 0.75 0.76 0.76 0.77 0.91 1.01 1.05 1.09 1.08 0.99 0.98 0.97 1.00 1.12 1.29 1.42 1.44 1.44 1.47 1.59 1.71 1.79 1.86 1.76
0.40 0.36 0.35 0.38 0.39 0.40 0.41 0.42 0.41 0.40 0.38 0.43 0.43 0.47 0.42 0.34 0.40 0.43 0.52 0.63 0.67 0.65 0.68 0.80 0.95 1.06 1.11 1.14 1.09 1.13 1.07 0.94 0.93 1.00 1.18 1.28 1.32 1.50 1.69 1.86 1.98 1.98 1.86
0.34 0.35 0.36 0.38 0.39 0.40 0.40 0.39 0.37 0.37 0.36 0.41 0.49 0.47 0.40 0.33 0.37 0.44 0.55 0.64 0.70 0.70 0.69 0.75 0.92 1.00 1.16 1.21 1.13 1.20 1.18 0.97 0.90 0.99 1.04 1.13 1.27 1.44 1.66 1.89 1.97 1.98 1.96
0.32 0.34 0.40 0.41 0.40 0.39 0.44 0.47 0.40 0.36 0.37 0.39 0.42 0.41 0.36 0.37 0.41 0.43 0.52 0.54 0.64 0.71 0.74 0.76 0.98 1.05 1.15 1.12 1.07 1.25 1.34 1.16 0.90 0.90 0.99 1.12 1.23 1.39 1.65 1.82 2.05 2.06 1.88
0.35 0.37 0.37 0.37 0.38 0.42 0.45 0.50 0.49 0.43 0.40 0.38 0.36 0.35 0.33 0.34 0.40 0.42 0.49 0.43 0.45 0.52 0.60 0.65 0.67 0.84 0.91 0.96 1.03 1.10 1.25 1.15 1.00 1.09 1.19 1.21 1.31 1.39 1.52 1.65 1.88 2.05 2.00
0.32 0.32 0.32 0.32 0.34 0.39 0.44 0.43 0.44 0.45 0.44 0.42 0.37 0.33 0.33 0.33 0.34 0.37 0.42 0.42 0.46 0.48 0.49 0.54 0.61 0.76 0.80 0.85 0.88 0.93 1.02 1.06 1.07 1.22 1.26 1.16 1.20 1.28 1.36 1.50 1.63 1.74 1.64
0.32 0.32 0.36 0.39 0.41 0.41 0.46 0.45 0.44 0.44 0.46 0.47 0.48 0.45 0.42 0.39 0.35 0.40 0.42 0.43 0.46 0.46 0.48 0.58 0.61 0.70 0.67 0.68 0.77 0.81 0.89 1.08 1.21 1.18 1.16 1.09 1.08 1.14 1.19 1.36 1.50 1.62 1.59
0.41 0.40 0.43 0.46 0.49 0.50 0.47 0.49 0.48 0.48 0.50 0.51 0.51 0.51 0.48 0.46 0.41 0.38 0.38 0.41 0.46 0.48 0.52 0.60 0.64 0.67 0.64 0.64 0.72 0.81 0.90 1.08 1.25 1.12 1.00 1.00 1.02 1.11 1.21 1.24 1.31 1.36 1.51
0.39 0.42 0.47 0.50 0.56 0.60 0.58 0.55 0.55 0.55 0.59 0.58 0.54 0.56 0.53 0.49 0.50 0.55 0.50 0.47 0.51 0.53 0.57 0.64 0.74 0.81 0.78 0.79 0.85 0.89 0.93 0.95 1.03 0.98 0.99 1.05 1.12 1.13 1.19 1.26 1.28 1.25 1.26
0.38 0.42 0.45 0.49 0.53 0.57 0.63 0.64 0.67 0.65 0.68 0.65 0.62 0.58 0.52 0.54 0.58 0.62 0.66 0.63 0.63 0.66 0.72 0.71 0.82 0.96 1.00 1.01 1.04 1.05 1.06 1.03 1.05 1.03 1.07 1.10 1.12 1.11 1.12 1.22 1.33 1.35 1.26
0.38 0.42 0.45 0.47 0.50 0.54 0.57 0.63 0.66 0.64 0.62 0.61 0.61 0.60 0.54 0.52 0.53 0.54 0.59 0.66 0.71 0.76 0.72 0.75 0.95 1.01 1.00 1.01 1.07 1.11 1.05 0.94 0.98 1.02 1.01 1.01 1.01 1.02 1.04 1.08 1.16 1.22 1.22
0.40 0.45 0.49 0.50 0.52 0.55 0.55 0.56 0.59 0.63 0.60 0.55 0.53 0.55 0.56 0.55 0.52 0.52 0.58 0.63 0.68 0.75 0.78 0.94 1.13 1.18 1.13 1.08 1.05 1.01 0.92 0.86 0.85 0.87 0.92 0.95 0.99 1.03 1.02 1.02 1.03 1.05 1.08
0.43 0.43 0.46 0.49 0.51 0.54 0.55 0.56 0.55 0.56 0.56 0.55 0.54 0.56 0.60 0.60 0.60 0.60 0.60 0.60 0.66 0.73 0.82 0.96 1.09 1.19 1.14 1.02 0.95 0.92 0.88 0.86 0.84 0.85 0.90 0.95 0.97 1.00 0.97 0.97 0.97 1.03 1.05
0.43 0.50 0.52 0.51 0.50 0.51 0.53 0.55 0.55 0.58 0.61 0.61 0.61 0.66 0.68 0.64 0.62 0.66 0.68 0.69 0.74 0.77 0.79 0.82 0.86 0.86 0.82 0.81 0.86 0.86 0.85 0.88 0.88 0.87 0.91 0.94 0.99 1.05 1.04 1.00 0.99 0.99 1.00
0.46 0.55 0.58 0.51 0.45 0.48 0.54 0.57 0.56 0.56 0.58 0.61 0.61 0.68 0.74 0.68 0.68 0.70 0.70 0.70 0.75 0.80 0.80 0.78 0.78 0.80 0.79 0.78 0.81 0.83 0.85 0.86 0.88 0.91 0.96 0.99 1.01 1.03 1.08 1.08 1.03 1.02 1.03
0.47 0.52 0.54 0.54 0.52 0.55 0.58 0.59 0.60 0.57 0.55 0.55 0.56 0.61 0.69 0.67 0.70 0.70 0.69 0.71 0.74 0.77 0.78 0.77 0.73 0.76 0.81 0.81 0.83 0.87 0.88 0.88 0.89 0.97 1.04 1.07 1.08 1.05 1.05 1.06 1.05 1.04 1.04
0.47 0.49 0.52 0.56 0.59 0.64 0.63 0.60 0.58 0.56 0.56 0.55 0.58 0.59 0.61 0.62 0.65 0.67 0.69 0.71 0.73 0.75 0.76 0.78 0.74 0.74 0.76 0.75 0.77 0.83 0.84 0.84 0.88 0.97 1.08 1.13 1.16 1.15 1.12 1.08 1.05 1.08 1.09
0.49 0.53 0.56 0.58 0.59 0.60 0.60 0.62 0.63 0.61 0.61 0.60 0.59 0.61 0.63 0.62 0.63 0.66 0.65 0.65 0.66 0.68 0.68 0.71 0.71 0.70 0.73 0.76 0.77 0.78 0.78 0.79 0.83 0.90 1.01 1.12 1.17 1.18 1.22 1.24 1.19 1.16 1.17
0.56 0.57 0.59 0.62 0.61 0.62 0.64 0.64 0.66 0.67 0.66 0.66 0.66 0.65 0.66 0.65 0.65 0.66 0.64 0.63 0.63 0.64 0.67 0.68 0.68 0.67 0.68 0.71 0.74 0.78 0.92 0.94 0.87 0.85 0.89 1.03 1.13 1.16 1.17 1.22 1.27 1.28 1.27
0.63 0.64 0.63 0.64 0.69 0.70 0.71 0.70 0.68 0.68 0.69 0.69 0.68 0.68 0.69 0.72 0.73 0.76 0.76 0.75 0.74 0.71 0.71 0.73 0.73 0.74 0.75 0.73 0.74 0.83 0.91 0.88 0.86 0.91 0.91 0.94 1.04 1.12 1.17 1.21 1.23 1.30 1.35

GEFSGL_prec_meanprecacc_318.txt.gz
Total_Precipitation_Accumulation
1.71 1.65 1.57 1.28 1.08 1.04 1.04 1.01 0.96 0.97 0.90 0.90 0.89 0.95 1.08 1.10 1.13 1.32 1.42 1.43 1.56 1.65 1.62 1.66 1.82 1.93 2.04 2.05 2.06 2.07 2.11 2.08 1.94 1.69 1.35 1.19 1.33 1.36 1.40 1.21 1.18 1.23 1.16
1.41 1.28 1.13 1.05 0.94 0.89 0.88 0.82 0.73 0.74 0.69 0.73 0.78 0.78 0.96 1.13 1.17 1.22 1.23 1.22 1.36 1.46 1.48 1.54 1.58 1.60 1.70 1.83 1.95 1.93 1.99 2.03 1.99 1.88 1.58 1.36 1.37 1.46 1.63 1.59 1.44 1.33 1.31
1.27 1.18 1.07 0.96 0.96 0.92 0.81 0.74 0.62 0.57 0.61 0.67 0.77 0.77 0.81 0.95 1.07 1.09 1.09 1.11 1.16 1.22 1.25 1.32 1.35 1.45 1.59 1.60 1.67 1.75 1.82 1.86 1.97 1.93 1.82 1.71 1.56 1.50 1.59 1.57 1.60 1.72 1.64
1.41 1.26 1.17 1.06 0.95 0.90 0.76 0.68 0.58 0.60 0.65 0.66 0.64 0.68 0.73 0.82 0.94 0.97 0.98 0.98 0.99 1.00 1.11 1.18 1.24 1.30 1.40 1.46 1.48 1.61 1.74 1.82 1.85 1.83 1.77 1.70 1.65 1.62 1.62 1.62 1.70 1.84 1.91
1.12 0.92 0.85 0.83 0.81 0.72 0.67 0.63 0.56 0.52 0.49 0.52 0.50 0.52 0.56 0.65 0.72 0.75 0.80 0.88 0.93 0.95 1.04 1.06 1.10 1.11 1.16 1.22 1.21 1.39 1.54 1.72 1.79 1.82 1.73 1.62 1.56 1.58 1.58 1.59 1.68 1.90 1.97
0.78 0.71 0.69 0.63 0.59 0.57 0.57 0.53 0.49 0.44 0.38 0.41 0.43 0.46 0.49 0.51 0.62 0.65 0.65 0.73 0.83 0.88 0.95 0.98 1.06 1.10 1.06 1.02 1.00 1.07 1.20 1.32 1.51 1.64 1.68 1.60 1.52 1.50 1.62 1.74 1.73 1.88 2.01
0.50 0.46 0.48 0.52 0.49 0.45 0.47 0.47 0.46 0.45 0.42 0.42 0.44 0.48 0.44 0.42 0.50 0.47 0.59 0.76 0.77 0.77 0.78 0.91 1.02 1.06 1.10 1.10 0.99 0.98 0.98 1.01 1.13 1.31 1.44 1.45 1.45 1.48 1.60 1.72 1.80 1.87 1.79
0.41 0.37 0.37 0.40 0.43 0.44 0.44 0.44 0.44 0.43 0.43 0.48 0.48 0.50 0.44 0.36 0.42 0.44 0.53 0.64 0.68 0.65 0.69 0.81 0.96 1.07 1.13 1.15 1.09 1.14 1.08 0.95 0.94 1.01 1.18 1.29 1.33 1.51 1.70 1.87 1.99 1.99 1.88
0.39 0.39 0.38 0.39 0.42 0.45 0.44 0.41 0.39 0.40 0.40 0.46 0.53 0.52 0.43 0.35 0.39 0.45 0.56 0.65 0.71 0.70 0.70 0.76 0.93 1.01 1.17 1.23 1.15 1.21 1.19 0.97 0.90 1.00 1.04 1.14 1.28 1.45 1.67 1.89 1.98 1.99 1.97
0.35 0.39 0.43 0.45 0.43 0.42 0.48 0.50 0.44 0.40 0.41 0.44 0.48 0.46 0.41 0.39 0.43 0.45 0.53 0.55 0.65 0.72 0.75 0.77 1.00 1.07 1.17 1.15 1.08 1.26 1.35 1.16 0.91 0.90 0.99 1.12 1.24 1.40 1.66 1.83 2.06 2.08 1.90
0.36 0.40 0.41 0.40 0.42 0.46 0.49 0.54 0.53 0.48 0.44 0.43 0.41 0.40 0.38 0.38 0.42 0.43 0.50 0.44 0.47 0.54 0.61 0.67 0.68 0.86 0.93 0.98 1.05 1.11 1.27 1.16 1.01 1.10 1.20 1.22 1.32 1.39 1.53 1.66 1.89 2.07 2.01
0.33 0.34 0.35 0.35 0.37 0.43 0.49 0.47 0.47 0.49 0.49 0.46 0.42 0.40 0.40 0.39 0.37 0.39 0.45 0.44 0.49 0.51 0.52 0.58 0.64 0.78 0.83 0.87 0.90 0.94 1.04 1.07 1.09 1.24 1.27 1.17 1.21 1.29 1.37 1.51 1.65 1.76 1.65
0.33 0.33 0.37 0.41 0.43 0.44 0.50 0.50 0.48 0.48 0.49 0.51 0.53 0.51 0.49 0.46 0.41 0.43 0.45 0.46 0.50 0.49 0.52 0.62 0.65 0.74 0.69 0.70 0.79 0.83 0.90 1.09 1.22 1.19 1.18 1.11 1.09 1.15 1.21 1.37 1.52 1.63 1.59
0.42 0.41 0.44 0.48 0.51 0.53 0.51 0.54 0.53 0.52 0.55 0.56 0.55 0.56 0.53 0.53 0.46 0.41 0.40 0.43 0.49 0.51 0.55 0.62 0.67 0.70 0.66 0.67 0.74 0.82 0.91 1.09 1.26 1.13 1.02 1.01 1.03 1.13 1.22 1.25 1.32 1.37 1.51
0.40 0.43 0.49 0.52 0.58 0.62 0.61 0.59 0.60 0.60 0.65 0.64 0.61 0.62 0.58 0.55 0.56 0.60 0.53 0.49 0.53 0.55 0.59 0.66 0.76 0.84 0.82 0.82 0.88 0.92 0.95 0.98 1.06 1.00 1.00 1.07 1.14 1.16 1.21 1.28 1.29 1.27 1.28
0.39 0.43 0.46 0.50 0.54 0.59 0.65 0.67 0.70 0.69 0.72 0.69 0.67 0.64 0.57 0.59 0.63 0.67 0.70 0.66 0.65 0.67 0.73 0.73 0.84 0.98 1.03 1.04 1.07 1.08 1.10 1.06 1.08 1.06 1.10 1.13 1.14 1.13 1.15 1.25 1.35 1.38 1.29
0.39 0.43 0.46 0.48 0.51 0.55 0.59 0.65 0.69 0.66 0.64 0.63 0.63 0.63 0.58 0.57 0.57 0.58 0.63 0.69 0.74 0.79 0.73 0.76 0.95 1.02 1.01 1.03 1.09 1.13 1.07 0.97 1.00 1.05 1.04 1.04 1.05 1.05 1.07 1.12 1.20 1.26 1.26
0.42 0.47 0.51 0.52 0.53 0.57 0.58 0.58 0.62 0.65 0.62 0.57 0.55 0.57 0.58 0.58 0.56 0.57 0.63 0.67 0.71 0.77 0.80 0.96 1.14 1.19 1.14 1.09 1.06 1.02 0.94 0.87 0.87 0.90 0.95 0.98 1.03 1.07 1.08 1.07 1.08 1.10 1.13
0.44 0.44 0.48 0.51 0.53 0.55 0.56 0.57 0.56 0.57 0.58 0.56 0.56 0.58 0.62 0.63 0.63 0.65 0.65 0.64 0.68 0.74 0.83 0.98 1.11 1.21 1.15 1.03 0.96 0.93 0.89 0.87 0.85 0.87 0.92 0.98 1.00 1.03 1.02 1.01 1.00 1.06 1.09
0.44 0.52 0.54 0.53 0.51 0.52 0.54 0.56 0.56 0.59 0.62 0.62 0.63 0.67 0.70 0.66 0.64 0.70 0.73 0.73 0.76 0.79 0.80 0.83 0.87 0.88 0.84 0.83 0.87 0.86 0.86 0.89 0.89 0.88 0.92 0.95 1.01 1.08 1.07 1.03 1.02 1.02 1.03
0.47 0.57 0.60 0.53 0.47 0.49 0.55 0.58 0.57 0.57 0.59 0.62 0.62 0.69 0.75 0.69 0.69 0.72 0.72 0.72 0.77 0.82 0.81 0.79 0.79 0.81 0.81 0.79 0.82 0.84 0.86 0.87 0.89 0.91 0.97 1.00 1.02 1.04 1.10 1.11 1.07 1.06 1.07
0.48 0.53 0.56 0.55 0.53 0.55 0.58 0.59 0.61 0.58 0.56 0.56 0.56 0.62 0.69 0.67 0.71 0.71 0.71 0.73 0.75 0.78 0.79 0.77 0.74 0.78 0.83 0.83 0.85 0.89 0.90 0.89 0.90 0.98 1.05 1.07 1.09 1.06 1.07 1.09 1.08 1.07 1.06
0.48 0.50 0.53 0.57 0.60 0.66 0.64 0.61 0.59 0.57 0.57 0.56 0.58 0.60 0.62 0.62 0.66 0.68 0.70 0.72 0.74 0.76 0.78 0.78 0.75 0.74 0.77 0.76 0.78 0.84 0.86 0.85 0.89 0.98 1.09 1.14 1.17 1.16 1.15 1.11 1.08 1.10 1.11
0.50 0.55 0.57 0.59 0.60 0.61 0.61 0.63 0.63 0.62 0.62 0.60 0.59 0.62 0.64 0.62 0.64 0.67 0.66 0.66 0.67 0.69 0.69 0.71 0.72 0.71 0.74 0.77 0.78 0.78 0.79 0.80 0.84 0.91 1.02 1.13 1.18 1.19 1.23 1.25 1.21 1.18 1.19
0.58 0.59 0.60 0.62 0.61 0.63 0.65 0.65 0.67 0.68 0.67 0.67 0.67 0.65 0.66 0.65 0.65 0.67 0.65 0.64 0.64 0.65 0.68 0.69 0.69 0.67 0.69 0.71 0.75 0.79 0.93 0.95 0.88 0.86 0.91 1.05 1.14 1.17 1.18 1.23 1.27 1.29 1.29
0.65 0.66 0.64 0.65 0.70 0.71 0.72 0.72 0.70 0.70 0.71 0.70 0.69 0.69 0.70 0.72 0.74 0.77 0.77 0.77 0.76 0.72 0.72 0.74 0.74 0.75 0.75 0.73 0.74 0.84 0.92 0.89 0.87 0.91 0.92 0.95 1.05 1.13 1.18 1.22 1.24 1.31 1.36